Baseball 板


LINE

#50 Hao-Yu Lee 先發二棒3B AB R H HR RBI BB K SB TB E AVG OBP SLG OPS wRC+ 4 0 1 0 0 1 0 1 1 0 .268 .311 .414 .725 102 1▼ vs Blake Snell(LHP) Pop Out EV69mph 104ft 72deg xBA.000 Bat Speed 70.5mph https://i.imgur.com/5bsAH6C.png 3▼ vs Blake Snell(LHP) Pop Out EV89mph 170ft 66deg xBA.010 Bat Speed 75.8mph https://i.imgur.com/YwGDpLQ.png 5▼ vs Blake Snell(LHP) Pop Out EV74.2mph 133ft 68deg xBA.000 https://i.imgur.com/Yw1jcbF.png 7▼ vs Alex Vesia(LHP) Single EV108.3mph 88ft 3deg xBA.530 Bat Speed 74.0mph https://www.threads.com/@shanglinsam/post/DcorpqZE7K3 Stolen Base 2B(2) https://www.threads.com/@shanglinsam/post/DcosKwCk1Qe 9▼ vs Jack Dreyer(LHP) Walk https://www.threads.com/@mylifewill_/post/Dcox14akx2f 今日李灝宇安打盜壘又選到保送啦!!! 前三打席都沒有掌握好 都是切到球下緣的一壘Pop out 終於在第四打席敲出一二壘間空隙的安打 這球擊球初速來到108.3mph 也是全場擊球初速最快的一球 連續兩天都擊出全場擊球初速最高的一球 隨後也跑出本季第二盜 起跑Timing抓得很好 Rortvedt傳到二壘時已滑上壘 九下再見嗆司被IBB前一棒要抓他 靠著耐心選球在滿球數後選到保送擠成滿壘 最後少主也擊出再見安打!!! 守備方面有一次瑕疵但沒有被記失誤 錯失了製造雙殺的機會 還好後來塞滿壘後製造了雙殺沒有多掉分 守備就再多加油吧 -- #39 鄭宗哲 Tsung-Che Cheng Boston Red Sox https://i.imgur.com/EhVZZsM.jpeg https://i.imgur.com/tUaxbUN.jpeg https://i.imgur.com/jvkBCR9.jpeg --



※ 發信站: 批踢踢實業坊(ptt.cc), 來自: 223.137.60.43 (臺灣)
※ 文章網址: https://webptt.com/m.aspx?n=bbs/Baseball/M.1788033641.A.53A.html
1F:推 twtpcsilence: 推08/30 04:00
2F:推 mork8850: 水啦08/30 04:01
3F:→ twtpcsilence: 耶頭香08/30 04:01
4F:推 superhannn: 下次換你當英雄08/30 04:01
5F:→ chiki428: 拉尾盤今天08/30 04:01
6F:→ O10lOl01O: 熬到最後值得啦08/30 04:01
7F:推 aa5aa9522: 推08/30 04:01
8F:→ WongTakashi: 公務員08/30 04:01
9F:推 Galbygene: good08/30 04:01
10F:推 jiaxie: 連兩天被木屐打穿守備,運氣不錯沒因為這樣掉分08/30 04:01
11F:推 cdsjquiz: 推08/30 04:01
12F:推 kevin74105: 開低走高08/30 04:02
13F:推 try107799: 做球給少主08/30 04:02
14F:推 rayrayok: 最後打席選的好 可惜沒自己打回來08/30 04:02
15F:→ nsk: https://i.mopix.cc/fUxyyd.jpg08/30 04:02
16F:推 l5i9hbba: 今天前面三打席有夠醜 還好後面兩打席彌補回來 守備再加08/30 04:02
17F:→ l5i9hbba: 油啦..08/30 04:02
18F:→ spzper: 還行中規中08/30 04:02
19F:推 xyz168: 大壓力頂住了,教練都有看在眼裡,大加分,修正的也快08/30 04:02
20F:推 heaventrain: 加油08/30 04:02
21F:→ rong1994: 蝸牛下去之後整個狀況還是很好 強擊球安打 最後很漂亮08/30 04:02
22F:→ rong1994: 的選球 狀況真的還是可以的 08/30 04:02
23F:推 Cctwtnk: 推08/30 04:02
24F:→ spzper: 守備差點就用打擊來補08/30 04:02
25F:推 jojo726: 有安有盜壘有BB 可以了08/30 04:02
26F:→ lsj049: 讚讚讚 第四打席醒了 第五打席關鍵BB讓少主再見安打08/30 04:02
27F:→ nsk: https://i.mopix.cc/rbJlny.jpg08/30 04:02
28F:→ xyz168: 基本上幾個打席就修正回來08/30 04:02
29F:→ jsai: 選到BB做球給少主不錯08/30 04:02
30F:推 EasyIsBeauty: 讚讚08/30 04:02
31F:推 don323: 最後有拼到保送就是讚啦08/30 04:03
32F:推 JustWinslow: 他如果穿道奇球衣 最後就打DP 選不到保送08/30 04:03
33F:推 Siika: 強08/30 04:03
34F:→ leo79415: 前三次都打太急 好在最後一個打席冷靜下來選了t08/30 04:03
35F:推 rickyjessy: 加油啊08/30 04:03
36F:推 a12841: 後面2打席小補一點08/30 04:03
37F:→ lsj049: 前三次真的有夠醜的 根本複製貼上08/30 04:03
38F:→ lsj049: 第四打席就回魂了08/30 04:03
39F:推 same60710: 讚喔 就說Snell等級不同很難打 前面不知道急什麼…08/30 04:04
40F:推 Jimimy: 主播又吹了一次灝宇選到四壞08/30 04:04
41F:推 ken159753000: 不錯 二棒打整場 選球有耐心08/30 04:04
42F:推 andy60214: 最後還笑得出來黑幫老大真的好嗆哈哈哈08/30 04:04
43F:推 cama: 大場面會笑的2棒價值 頂起來08/30 04:04
44F:推 gotohikaru: 最後的BB讓外野必須繼續守淺也算有幫助 08/30 04:04
45F:→ caeiu: 大場面還笑得出來真的心臟大顆08/30 04:05
46F:推 k5204520: 最後BB逼的要正面對決少主 不然肯定選對決丁哥08/30 04:05
47F:推 jschenlemn: 有安打有盜壘最後關鍵BB又是愉快的一天08/30 04:05
48F:→ exrickeynew: 再見場面一上來就笑 這心裡素質穩了08/30 04:05
49F:→ rong1994: 強力推薦沒看直播的朋友去看他最後一個打席 23歲第一年08/30 04:06
50F:→ rong1994: 菜鳥在那個情況能纏鬥選保送 真的很了不起08/30 04:06
51F:推 karta3127117: 剛那個打席蠻刺激08/30 04:06
52F:推 Hugo92466312: 讚喔08/30 04:06
53F:→ rong1994: 最後那個打席在教練心中一定是大加分的08/30 04:06
54F:推 lsj049: 賽揚左投真的難打08/30 04:06
55F:→ l5i9hbba: 上去打前巴椰子耳提面命一直提醒 然後灝宇就笑了 果然不08/30 04:06
56F:→ l5i9hbba: 是浪得虛名的天才?(誤08/30 04:06
57F:→ JeremyNeil: 今天最後兩打席還好有振作!加油加油08/30 04:06
58F:推 space20021: 前三次被蝸牛玩死QQ08/30 04:07
59F:→ lsj049: 如果大谷明天假先發的話 希望能在前三棒打大谷08/30 04:07
60F:→ l5i9hbba: 灝宇上來之後打球心的能力蠻好的 就知道蝸牛的球有多會08/30 04:08
61F:→ l5i9hbba: 跑08/30 04:08
62F:推 andy60214: 巴爺跟他提醒還搭配手勢,到底說了什麼,速球會往上飄08/30 04:08
63F:→ andy60214: 喔放過高球?08/30 04:08
64F:推 photoB1N: 熬夜值得 讚讚08/30 04:08
65F:推 Cm048: 最後選球扛得住壓力啊08/30 04:08
66F:推 jiaxie: 右投先發,虎教頭應該會調到後段棒次 08/30 04:08
67F:推 leo79415: 也有可能輪休吧 最近也連續好幾場先發了08/30 04:08
68F:→ O10lOl01O: 前三打席看完 先發危險 最後兩打席看完 先發穩了!08/30 04:09
69F:推 PaladinC: 推好的本壘板紀律08/30 04:09
70F:→ O10lOl01O: 還是收尾漂亮比較重要 如果是後三次醜就難講了08/30 04:09
71F:→ gn7722: 前面三打席不知道在打三洨08/30 04:10
72F:推 l5i9hbba: 巴椰子好狀況 搞不好會輪休了08/30 04:10
73F:推 Cuchulainn: 止敗就是爽08/30 04:12
74F:推 rong1994: 前三打席整個亂掉 加上守備又失誤 我看轉播都覺得今天08/30 04:15
75F:→ rong1994: 崩了 但他真的調整很快 心態超穩08/30 04:15
76F:推 tnl0716: 最近感覺左投會去打二棒 右投就會去九棒08/30 04:15
77F:推 CaminoI: 前面對的畢竟是蝸牛阿 後面打出來 最後被抓有穩住BB08/30 04:15
78F:→ CaminoI: 延續攻勢也是關鍵08/30 04:16
79F:推 sulaeric: 最後纏鬥上壘。太神了08/30 04:16
80F:→ CaminoI: 面對大場面的抗壓力不錯08/30 04:16
81F:→ lsj049: 不過之前狀況好的時候打右投還是二棒就是了08/30 04:16
82F:推 l5i9hbba: 明天也有Torkelson 板凳,Keith一壘的選項。今天Hinch就08/30 04:17
83F:→ l5i9hbba: 先受不了Torkelson了08/30 04:17
84F:→ l5i9hbba: 那場右投畢竟是打Wacha,最會打的08/30 04:17
85F:→ lsj049: 雞絲一壘老虎教練團坐得住嗎ww08/30 04:19
86F:→ lsj049: 不過明天應該會二壘讓托天子打DH吧08/30 04:19
87F:推 OhmaZiO: 讚讚讚08/30 04:19
88F:推 O10lOl01O: 明天0140見...也是凌晨打 08/30 04:19
89F:→ xyz168: 李前面打席本來可以建功,被Snell來個換鞋rush到...算是08/30 04:20
90F:→ xyz168: 學個經驗,後來也修正的很快,心理素質沒崩掉,讚讚讚08/30 04:20
91F:推 rong1994: 賽後應該有記者問他為啥可以突然換鞋吧08/30 04:20
92F:→ rong1994: 好好奇08/30 04:20
93F:推 CaminoI: 這兩天好像都有被針對到 昨天被IBB 今天被抓 還有疑似換08/30 04:21
94F:→ CaminoI: 鞋拐氣?08/30 04:21
95F:→ xyz168: 教練九局的關鍵打席都沒換李,算是對他有信心了,鐵了心08/30 04:21
96F:→ xyz168: 要好好栽培李這個棒子08/30 04:22
97F:推 prosta: 丁哥畢竟今天吃3K了,少主還選了2BB 08/30 04:22
98F:→ prosta: 所以李灝宇最後那保送很重要08/30 04:23
99F:推 MK47: 讚的08/30 04:23
※ 編輯: ProducerChen (223.137.60.43 臺灣), 08/30/2026 04:24:13
100F:推 caeiu: 只看這場你覺得他危險,看完他整個八月你會知道李現在算是 08/30 04:25
101F:→ caeiu: 進入AJ的信任範圍 08/30 04:25
102F:推 Arodz: 好‼ 08/30 04:25
103F:→ caeiu: 9下保送能串連前後順利再見安,明年李在老虎打線肯定是會很 08/30 04:26
104F:→ caeiu: 有存在感 08/30 04:26
105F:推 O10lOl01O: 再來應該是對雪哥?右投 看會排第幾棒 08/30 04:31
106F:推 ZaneTrout: 加油 08/30 04:31
107F:→ k60517no1: 前三打席不知道在急什麼,淺球數一直出棒,強打者不能 08/30 04:32
108F:→ k60517no1: 害怕兩好球,而且你還有不錯的纏鬥能力,做好紀律才有 08/30 04:32
109F:→ k60517no1: 持續先發的空間 08/30 04:32
110F:推 lsj049: 話說李灝宇單季90場出賽寫下台灣野手新紀錄 08/30 04:37
111F:→ lsj049: 目前單季保送跟部長並列最高 08/30 04:37
112F:推 Eric102990: 鳥飛是強打者的特產 08/30 04:38
113F:推 littlesheepy: 挖前兩打席都鳥飛就不看了,想不到結果還行 08/30 04:41
114F:推 Joseph0724: 很棒 08/30 04:46
115F:→ a0561349: 守備真的要加油阿 08/30 04:50
116F:推 coffee0981: 今天表現不錯,看前三個打席以為今天打擊涼了,幸好 08/30 05:22
117F:→ coffee0981: 第四打席有敲安然後後面還選到一個保送 08/30 05:22
118F:→ James921124: 繼續加油 08/30 05:38
119F:推 amen123: 九下關鍵選球 08/30 05:39
120F:推 nyybronx: 後面還行,前面只能說Snell太難打了 08/30 05:51
121F:推 shigeno24: 蝸牛的投球型態真的剋死李灝宇 08/30 05:54
122F:推 shigeno24: 高位速球精準壓在好球帶上緣很難打 08/30 05:54
123F:推 pheer: 推,灝宇強啦 08/30 05:59
124F:→ WasJohnWall: 李真的比想像還優秀 08/30 06:10
125F:推 yuki476375: 最後打席最後一球高球有忍住,好險 08/30 06:22
126F:推 Augustus5: 可以喔 08/30 06:30
127F:推 smallken0410: 比特犬讚啦 08/30 06:31
128F:推 leo79415: 鄧上了 08/30 06:31
129F:推 jason40311: 打爛道奇就是爽啊!! 08/30 06:31
130F:推 RamenOwl: 比涼平強 08/30 06:32
131F:推 yayahong: 帥啊 08/30 06:33
132F:推 yiersan: 好在後來不錯 加油 08/30 06:33
133F:→ aerysky: 讚讚 08/30 06:44
134F:→ lsj049: 大谷確定明天不先發 所以雪哥直接先發 08/30 06:49
135F:→ lsj049: 那李灝宇大概後段棒次守二壘吧 08/30 06:49
136F:推 catsondbs: 直播看三次高飛球以為今天不在狀態 水啊 08/30 07:09
137F:推 momowawa1981: 繼續保持 威啊 08/30 07:13
138F:推 e2c4o6: 漂亮 08/30 07:19
139F:推 ilks2334: 有安就行~ 08/30 07:25
140F:推 ilovesola: 還好有拉尾盤 繼續加油 08/30 07:31
141F:推 Serenity7136: 繼續加油! 08/30 07:34
142F:推 Coslate: ? 08/30 07:39
143F:推 koi33000: 後面不錯 繼續加油 08/30 07:43
144F:推 Yjizz: HAO DO YU DO 08/30 08:04
145F:推 HaoPing1119: 讚 08/30 08:15
146F:推 catsondbs: 好想知道八椰子跟他說了甚麼 心靈導師 08/30 08:18
147F:推 d123xxx: 前面對到蝸牛 能打好的人也不多啦 打得醜也還好 08/30 08:27
148F:推 kitvxq: 不錯耶 加油 08/30 08:28
149F:推 birdskingla: 加油 08/30 08:31
150F:推 HuckleberryF: 還不錯 加油 08/30 08:35
151F:推 ebiebibbNOOB: 加賽吧…拜託 08/30 08:40
152F:推 stpmouse: 讚 08/30 08:43
153F:推 SeanLi1013: 水喔 08/30 08:54
154F:推 helloemperor: 喔喔,後面打席有調整回來不錯 08/30 08:54
155F:推 coveted: 真猛 08/30 08:55
156F:推 smalleyesjun: https://youtu.be/e_sDDS6yjdM 08/30 09:10
157F:推 ClaytonKersh: 讚喔 08/30 09:16
158F:推 bluefire: 難得被教練信任那麼久,手感繼續維持啊,最後一個打席真 08/30 09:21
159F:→ bluefire: 的精彩 08/30 09:21
160F:推 foxey: 加油加油 今天擊球品質變差要注意 08/30 09:28
161F:推 ricky9696: 加油 08/30 09:39
162F:推 Tr3vyy: 推推 08/30 09:44
163F:推 A135142: 爽啦 08/30 09:47
164F:推 abcnelson654: 盜壘好少 08/30 09:50
165F:推 mp5good: 最後一打席其實超精彩,前面看一顆超級會掉的曲球從肩膀 08/30 09:51
166F:→ mp5good: 高掉到膝蓋高進壘,後面只要有相似的軌跡就一律出棒破壞 08/30 09:51
167F:→ mp5good: ,最後等到控不好的速球保送 08/30 09:51
168F:推 wenfei: 推 08/30 09:58
169F:推 jerrychien06: 看了三打席就睡了 後兩打席不錯 08/30 10:03
170F:推 MJL1822: 前三打席醜到哭 還好教練繼續給機會 08/30 10:13
171F:推 utn875: 前三打席完全被壓制,但關鍵時刻依然很有貢獻 08/30 10:16
172F:推 terry955048: 打snell都沒問題超強 08/30 10:36
173F:推 ByNash: 強心臟屬性發動 關鍵時刻真的強 08/30 10:44
174F:推 Vincent10247: 加油! 08/30 10:53
175F:→ TKnR: 保送重要 08/30 10:53
176F:→ hpfan: 讚欸 08/30 11:06
177F:推 bluehttp: 李打球 有年輕人特有的拼勁 08/30 11:10
178F:推 huang6699: 推 08/30 11:30
179F:推 coronach: 遇上Vesia沒被換下來就知道教練開始信任他了,繼續加油 08/30 11:36
180F:推 wow999: 最後打席真的不簡單 08/30 11:42
181F:推 hungyuan: 讚讚 08/30 11:46
182F:→ AhCheng: 讚讚 08/30 11:50
183F:推 seguignol: 加油 08/30 12:27
184F:推 blademan: 最後打席冷靜選到保送真的讚 08/30 12:37
185F:推 rocky9137: 打擊率從兩成八跌到兩成六了 08/30 12:41
186F:推 yomuntph: 跟鬼一樣 守備怎樣你先別管 08/30 12:52
187F:推 martinjfc: 今日文能順便寫個比賽結果再好不過,虎1分險勝 08/30 13:17
188F:推 jimmyyang207: 猛的點是招魂大隊還來不及酸 李就已經調整好了 08/30 13:22
189F:→ jimmyyang207: 超強調整適應力 08/30 13:22
190F:推 O10lOl01O: 真的要給教練一個讚 前三打席打成這樣 後來沒換掉 08/30 13:43
191F:→ O10lOl01O: 真的滿願意給機會的 08/30 13:43
192F:推 LogDee: 繼續保持! 08/30 13:44
193F:推 Pigsinthe: 所以第二個打席snell摸摸又回休息室是去幹嘛? 08/30 13:45
194F:推 jason60528: 加油啊 08/30 13:48
195F:→ ProducerChen: 後來有訪問Snell 他說是因為他腳上起水泡貼了一個 08/30 14:02
196F:→ ProducerChen: OK繃會一直滑 已經掉下來了所以他跟裁判說 裁判也 08/30 14:02
197F:→ ProducerChen: 同意他去撕掉 08/30 14:02
198F:推 webberfun: 讚讚 08/30 14:41
199F:推 sorrry30000: 爽啊刺啊 08/30 15:07
200F:→ hydra7: 前面會被蝸牛壓制正常..... 08/30 15:28







like.gif 您可能會有興趣的文章
icon.png[問題/行為] 貓晚上進房間會不會有憋尿問題
icon.pngRe: [閒聊] 選了錯誤的女孩成為魔法少女 XDDDDDDDDDD
icon.png[正妹] 瑞典 一張
icon.png[心得] EMS高領長版毛衣.墨小樓MC1002
icon.png[分享] 丹龍隔熱紙GE55+33+22
icon.png[問題] 清洗洗衣機
icon.png[尋物] 窗台下的空間
icon.png[閒聊] 双極の女神1 木魔爵
icon.png[售車] 新竹 1997 march 1297cc 白色 四門
icon.png[討論] 能從照片感受到攝影者心情嗎
icon.png[狂賀] 賀賀賀賀 賀!島村卯月!總選舉NO.1
icon.png[難過] 羨慕白皮膚的女生
icon.png閱讀文章
icon.png[黑特]
icon.png[問題] SBK S1安裝於安全帽位置
icon.png[分享] 舊woo100絕版開箱!!
icon.pngRe: [無言] 關於小包衛生紙
icon.png[開箱] E5-2683V3 RX480Strix 快睿C1 簡單測試
icon.png[心得] 蒼の海賊龍 地獄 執行者16PT
icon.png[售車] 1999年Virage iO 1.8EXi
icon.png[心得] 挑戰33 LV10 獅子座pt solo
icon.png[閒聊] 手把手教你不被桶之新手主購教學
icon.png[分享] Civic Type R 量產版官方照無預警流出
icon.png[售車] Golf 4 2.0 銀色 自排
icon.png[出售] Graco提籃汽座(有底座)2000元誠可議
icon.png[問題] 請問補牙材質掉了還能再補嗎?(台中半年內
icon.png[問題] 44th 單曲 生寫竟然都給重複的啊啊!
icon.png[心得] 華南紅卡/icash 核卡
icon.png[問題] 拔牙矯正這樣正常嗎
icon.png[贈送] 老莫高業 初業 102年版
icon.png[情報] 三大行動支付 本季掀戰火
icon.png[寶寶] 博客來Amos水蠟筆5/1特價五折
icon.pngRe: [心得] 新鮮人一些面試分享
icon.png[心得] 蒼の海賊龍 地獄 麒麟25PT
icon.pngRe: [閒聊] (君の名は。雷慎入) 君名二創漫畫翻譯
icon.pngRe: [閒聊] OGN中場影片:失蹤人口局 (英文字幕)
icon.png[問題] 台灣大哥大4G訊號差
icon.png[出售] [全國]全新千尋侘草LED燈, 水草

請輸入看板名稱,例如:Tech_Job站內搜尋

TOP